CW1839 Weather Reports


Display with metric or nautical units.
time (UTC)temp
F
wind
direction
speed
MPH
gust
MPH
rain 1hr
in
rain 24hr
in
rain mn
in
humidity
%
barometer
mb
20180223195454 47 330 3.0 0.0 0.00 0.00 0.39 72 994.4
20180223194007 46 282 5.0 0.0 0.00 0.00 0.39 77 993.8
20180223192213 45 268 5.0 0.0 0.00 0.00 0.39 86 993.5
20180223190725 45 246 2.0 0.0 0.00 0.00 0.39 89 993.5
20180223185206 45 237 2.0 0.0 0.00 0.00 0.39 90 993.3
20180223183718 46 261 2.0 0.0 0.00 0.00 0.39 90 993.1
20180223182122 46 234 1.0 0.0 0.00 0.00 0.39 90 993.0
20180223180625 47 251 3.0 0.0 0.00 0.00 0.39 90 993.1
20180223175103 47 229 2.0 0.0 0.00 0.00 0.39 91 993.0
20180223173616 48 240 1.0 0.0 0.00 0.00 0.39 91 992.6
20180223172120 48 229 2.0 0.0 0.00 0.00 0.39 92 992.4
20180223170609 48 224 1.0 0.0 0.00 0.00 0.39 92 992.5
20180223164955 48 220 1.0 0.0 0.00 0.00 0.39 92 992.5
20180223163604 48 220 0.0 0.0 0.00 0.00 0.39 92 992.6
20180223161948 49 264 0.0 0.0 0.00 0.00 0.39 92 992.3
20180223160458 49 268 0.0 0.0 0.00 0.00 0.39 92 992.2
20180223154959 49 267 0.0 0.0 0.00 0.00 0.39 93 992.4
20180223153606 49 254 1.0 0.0 0.00 0.00 0.39 93 992.3
20180223151954 48 175 0.0 0.0 0.00 0.00 0.39 93 992.5
20180223150604 49 172 1.0 0.0 0.00 0.00 0.39 93 992.5
20180223144955 48 181 1.0 0.0 0.00 0.00 0.39 93 992.1
20180223143455 49 121 1.0 0.0 0.00 0.00 0.39 93 992.4
20180223142001 49 151 1.0 0.0 0.00 0.00 0.39 93 992.6
20180223140218 50 155 0.0 0.0 0.00 0.00 0.38 94 992.0
20180223134705 50 161 0.0 0.0 0.00 0.00 0.38 94 992.0
20180223133208 51 161 0.0 0.0 0.00 0.00 0.38 94 992.1
20180223131715 51 141 0.0 0.0 0.00 0.00 0.38 94 992.7
20180223130119 52 157 0.0 0.0 0.00 0.00 0.38 94 992.6
20180223124605 52 172 0.0 0.0 0.00 0.00 0.38 94 992.4
20180223123112 52 176 0.0 0.0 0.00 0.00 0.38 94 993.0
20180223121620 52 203 0.0 0.0 0.00 0.00 0.38 94 992.9
20180223120106 51 202 0.0 0.0 0.00 0.00 0.38 94 993.1
20180223114610 51 243 0.0 0.0 0.00 0.00 0.38 94 992.9
20180223113007 51 182 0.0 0.0 0.00 0.00 0.37 94 993.3
20180223111607 51 145 0.0 0.0 0.00 0.00 0.36 94 993.6
20180223105955 51 109 0.0 0.0 0.00 0.00 0.36 94 993.6
20180223104502 50 195 1.0 0.0 0.00 0.00 0.36 94 993.8
20180223103107 50 154 2.0 0.0 0.00 0.00 0.35 93 994.3
20180223101502 52 117 1.0 0.0 0.00 0.00 0.34 93 994.5
20180223100112 53 208 8.0 0.0 0.00 0.00 0.32 94 994.7
20180223094455 54 72 4.0 0.0 0.00 0.00 0.22 94 994.0
20180223092955 54 69 5.0 0.0 0.00 0.00 0.20 94 994.5
20180223091457 54 73 5.0 0.0 0.00 0.00 0.19 94 994.5
20180223085955 54 75 6.0 0.0 0.00 0.00 0.19 94 994.7
20180223084501 54 58 2.0 0.0 0.00 0.00 0.18 94 995.0
20180223082956 54 61 0.0 0.0 0.00 0.00 0.16 94 995.2
20180223081219 54 71 0.0 0.0 0.00 0.00 0.15 94 995.6
20180223075718 54 58 0.0 0.0 0.00 0.00 0.14 93 995.1
20180223074213 54 35 0.0 0.0 0.00 0.00 0.14 93 995.3
20180223072704 54 42 0.0 0.0 0.00 0.00 0.14 93 995.6
20180223071112 54 52 0.0 0.0 0.00 0.00 0.14 93 996.1
20180223065618 54 88 0.0 0.0 0.00 0.00 0.14 93 996.1
20180223064105 54 88 0.0 0.0 0.00 0.00 0.14 93 996.3
20180223062615 54 120 0.0 0.0 0.00 0.00 0.12 93 996.4
20180223061114 54 86 0.0 0.0 0.00 0.00 0.11 93 996.3
20180223055500 54 58 0.0 0.0 0.00 0.00 0.11 93 996.4
20180223054009 52 86 0.0 0.0 0.00 0.00 0.11 93 996.1
20180223052506 51 110 0.0 0.0 0.00 0.00 0.10 92 995.7
20180223050949 52 174 0.0 0.0 0.00 0.00 0.09 92 996.1
20180223045604 52 184 0.0 0.0 0.00 0.00 0.08 92 996.0
20180223043953 53 112 0.0 0.0 0.00 0.00 0.06 92 996.2
20180223042453 53 121 0.0 0.0 0.00 0.00 0.06 92 996.3
20180223041002 53 189 0.0 0.0 0.00 0.00 0.04 92 996.6
20180223035459 52 186 0.0 0.0 0.00 0.00 0.04 92 996.5
20180223034004 52 186 0.0 0.0 0.00 0.00 0.04 92 996.3
20180223032446 53 186 0.0 0.0 0.00 0.00 0.04 92 996.6
20180223030957 53 186 0.0 0.0 0.00 0.00 0.04 92 996.7
20180223025218 54 186 0.0 0.0 0.00 0.00 0.04 92 997.0
20180223023705 54 172 0.0 0.0 0.00 0.00 0.04 92 996.8
20180223022212 54 162 0.0 0.0 0.00 0.00 0.02 91 997.0
20180223020720 54 344 0.0 0.0 0.00 0.00 0.00 91 997.0
20180223015116 53 344 0.0 0.0 0.00 0.00 0.00 91 997.0
20180223013621 53 344 0.0 0.0 0.00 0.00 0.00 91 997.0
20180223012121 53 344 0.0 0.0 0.00 0.00 0.00 91 997.3
20180223010606 53 344 0.0 0.0 0.00 0.00 0.00 91 997.5
20180223005115 53 344 0.0 0.0 0.00 0.00 0.00 90 997.6
20180223003504 53 344 0.0 0.0 0.00 0.00 0.00 90 997.8
20180223001951 52 340 0.0 0.0 0.00 0.00 0.00 90 997.8
20180223000502 52 340 0.0 0.0 0.00 0.00 0.00 90 997.8
20180222234955 52 340 0.0 0.0 0.00 0.00 0.00 90 998.0
20180222233607 51 340 0.0 0.0 0.00 0.00 0.00 90 998.1
20180222231957 51 340 0.0 0.0 0.00 0.00 0.00 90 998.2
20180222230610 50 340 0.0 0.0 0.00 0.00 0.00 90 998.4
20180222224956 50 340 0.0 0.0 0.00 0.00 0.33 90 998.3
20180222223457 51 340 0.0 0.0 0.00 0.00 0.33 90 998.4
20180222222004 51 340 0.0 0.0 0.00 0.00 0.33 90 998.4
20180222220455 51 340 0.0 0.0 0.00 0.00 0.33 90 998.3
20180222214817 51 340 0.0 0.0 0.00 0.00 0.33 91 998.4
20180222213215 50 296 0.0 0.0 0.00 0.00 0.33 91 998.5
20180222211722 50 296 0.0 0.0 0.00 0.00 0.33 91 998.6
20180222210211 50 296 0.0 0.0 0.00 0.00 0.33 92 998.7
20180222204714 50 296 0.0 0.0 0.00 0.00 0.33 92 998.9
20180222203124 50 265 0.0 0.0 0.00 0.00 0.33 92 999.0
20180222201609 49 264 0.0 0.0 0.00 0.00 0.33 93 998.8